User: anonymous   Login
Location: Blue Mountain Vista Observatory
(40.6992°N, 75.9422°W)
Time: 10:25:02
(UTC-04:00)
Language:

Cosmos 1222 Rocket - Orbit

View from above orbital plane
View from above orbital plane
View from above satellite
View from above satellite

Ground track
Ground track

The orbit data is extracted from the following two-line orbital elements,

1 12072U 80093B   14302.11971337  .00061980  00000-0  62777-3 0  2678
2 12072 081.1806 160.8526 0008716 237.2735 122.7680 15.64977020866981
Epoch (UTC): 29 October 2014 02:52:23
Eccentricity: 0.0008716
inclination: 81.1806°
perigee height: 367 km
apogee height: 379 km
right ascension of ascending node: 160.8526°
argument of perigee: 237.2735°
revolutions per day: 15.64977020
mean anomaly at epoch: 122.7680°
orbit number at epoch: 86698

The dashed part of the orbit path shows where the satellite is in the earth's shadow,  

DLR